Flag for Germany Weather past 2 weeks in Lörrach, Baden-Württemberg, Germany

Now
61 °F

Fog.


Feels Like: 61 °F
Forecast: 53 / 70 °F
Wind: 2 mph from North

Location: Bale-Mulhouse

Current Time: Oct 1, 2014 at 2:26:27 AM

Latest Report: Oct 1, 2014 at 2:00 AM


Visibility: 3 mi

Pressure: 30.30 "Hg

Humidity: 94%

Dew point: 59 °F

Location of LörrachLocation

Historic Weather in Lörrach — Graph

°F

Lörrach temperature yesterday

Maximum temperature yesterday: 72 °F (at 4:00 PM)
Minimum temperature yesterday: 59 °F (at 1:30 AM)
Average temperature yesterday: 63 °F

Past Weeks' High & Low Weather Summary

 TemperatureHumidityPressure
High79 °F (Sep 16, 3:30 PM)100% (Sep 16, 1:30 AM)30.36 "Hg (Sep 16, 1:30 AM)
Low39 °F (Sep 24, 4:30 AM)42% (Sep 28, 5:30 PM)29.83 "Hg (Sep 17, 4:30 PM)
Average60 °F82%30.11 "Hg
* Reported Sep 16 1:00 AM — Oct 1 1:30 AM, Lörrach, Weather by CustomWeather, © 2014

Note: Actual official high and low records may vary slightly from our data, if they occured in-between our weather recording intervals... More about our weather records

Advertising

Lörrach weather history for previous 24 hours

 ConditionsComfort  
Time TempWeatherWind HumidityBarometerVisibility
1:30 AM
Oct 1
61 °FFog.2 mph94%30.30 "Hg2 mi
1:00 AM61 °FFog.2 mph94%30.30 "Hg2 mi
12:30 AM59 °FFog.2 mph100%30.30 "Hg2 mi
12:00 AM59 °FFog.5 mph100%30.30 "Hg2 mi
11:30 PM
Sep 30
59 °FFog.2 mph100%30.30 "Hg2 mi
10:30 PM59 °FFog.2 mph100%30.30 "Hg2 mi
10:00 PM59 °FPassing clouds.1 mph100%30.30 "Hg5 mi
9:30 PM61 °FPassing clouds.1 mph94%30.30 "Hg5 mi
9:00 PM63 °FPassing clouds.1 mph94%30.30 "HgN/A
8:30 PM63 °FPartly cloudy.2 mph94%30.30 "HgN/A
8:00 PM63 °FLight rain. Broken clouds.2 mph94%30.30 "HgN/A
7:30 PM64 °FBroken clouds.2 mph88%30.30 "HgN/A
7:00 PM64 °FBroken clouds.7 mph88%30.30 "HgN/A
6:30 PM64 °FMixture of precip. Broken clouds.6 mph88%30.27 "HgN/A
6:00 PM68 °FSprinkles. Broken clouds.6 mph78%30.27 "Hg6 mi
5:30 PM70 °FSprinkles. Broken clouds.3 mph69%30.27 "HgN/A
5:00 PM72 °FPartly sunny.No wind61%30.27 "HgN/A
4:30 PM72 °FPartly sunny.1 mph65%30.30 "HgN/A
4:00 PM72 °FPartly sunny.1 mph65%30.30 "HgN/A
3:30 PM70 °FPartly sunny.2 mph69%30.30 "HgN/A
3:00 PM70 °FPartly sunny.3 mph69%30.30 "HgN/A
2:30 PM70 °FPartly sunny.2 mph64%30.30 "HgN/A
2:00 PM70 °FPartly sunny.1 mph69%30.30 "HgN/A
1:30 PM68 °FPartly sunny.2 mph69%30.30 "HgN/A
1:00 PM68 °FPartly sunny.No wind69%30.33 "HgN/A
12:30 PM68 °FBroken clouds.1 mph73%30.30 "HgN/A
12:00 PM66 °FPartly sunny.No wind78%30.33 "HgN/A
11:30 AM66 °FBroken clouds.No wind78%30.30 "HgN/A
11:00 AM64 °FPartly sunny.2 mph83%30.30 "HgN/A
10:30 AM64 °FBroken clouds.3 mph83%30.30 "HgN/A
10:00 AM64 °FPartly sunny.3 mph83%30.30 "HgN/A
9:30 AM63 °FPartly sunny.3 mph88%30.30 "HgN/A
9:00 AM61 °FBroken clouds.1 mph94%30.30 "HgN/A
8:30 AM61 °FPartly sunny.2 mph94%30.30 "HgN/A
8:00 AM59 °FPassing clouds.No wind94%30.30 "HgN/A
7:30 AM59 °FPassing clouds.2 mph94%30.30 "HgN/A
7:00 AM59 °FPassing clouds.2 mph94%30.27 "HgN/A
6:30 AM59 °FPassing clouds.3 mph94%30.27 "HgN/A
6:00 AM59 °FPassing clouds.2 mph94%30.27 "HgN/A
5:30 AM59 °FPassing clouds.1 mph94%30.27 "HgN/A
5:00 AM59 °FPassing clouds.No wind94%30.27 "HgN/A
4:30 AM59 °FPassing clouds.1 mph94%30.27 "HgN/A
4:00 AM59 °FPassing clouds.No wind94%30.27 "HgN/A
3:30 AM59 °FClear.1 mph94%30.27 "HgN/A
3:00 AM59 °FClear.2 mph94%30.27 "HgN/A
2:30 AM59 °FMostly cloudy.1 mph94%30.30 "HgN/A
2:00 AM59 °FPassing clouds.2 mph94%30.30 "HgN/A
Weather by CustomWeather, © 2014

See weather overviewHow to use our weather pages